Location: Bouillancy
(49.1149°N, 2.9308°E)
Time: 07:10:32
(UTC+00:00)

Ariane Rocket - Pass Details

Date: 30 September 2020
Orbit: 760 x 770 km, 98.7° (Epoch: 30 October)

Event Time Altitude Azimuth Distance (km) Brightness Sun altitude
Exits shadow 19:06:13 19° 146° (SSE) 1,786 4.5 -16.7°
Maximum altitude 19:09:53 62° 70° (ENE) 862 3.0 -17.3°
Drops below altitude 10° 19:14:55 10° 351° (N) 2,322 5.8 -18.1°
Sets 19:17:15 0° 348° (NNW) 3,254 6.7 -18.5°
